[[{"header":{"parameterUnit":"m.s-1","parameterCategory":1,"la1":30.2991,"la2":30.254,"lo1":-89.0895,"lo2":-89.0444,"dy":0.0017,"dx":0.0017,"nx":28,"ny":28,"refTime":"2025-07-20T09:00:00:Z","depth":0,"parameterNumber":2,"parameterNumberName":"U-component_of_WINDS"},"data":[0,0,0,0,0,0,0,0,0,0,0,0,0,0,0,0,0,0,0,0,0,0,0,0,0,0,0,0,0,0,0,0,0,0,0,0,0,0,0,0,0,0,0,0,0,0,0,0,0,0,0,0,0,0,0,0,0,0,2.825,2.8251,0,2.8366,2.8367,2.8368,2.8358,2.8356,2.8354,2.8353,2.8475,2.8479,2.8484,0,0,0,0,0,0,0,0,0,0,0,0,0,2.8022,2.8026,2.825,2.8251,2.8253,2.8366,2.8367,2.8369,2.8358,2.8356,2.8354,2.8352,2.8473,2.8479,2.8485,0,0,0,0,0,0,0,0,0,0,0,0,0,2.8127,2.8027,2.825,2.8261,2.8263,2.8365,2.8367,2.8369,2.8359,2.8356,2.8353,2.8351,2.8471,2.8478,2.8485,2.8585,0,0,2.8508,2.8511,0,0,0,0,0,0,0,0,2.8121,2.8136,2.8258,2.826,2.8263,2.8345,2.8331,2.8442,2.8359,2.8323,2.8353,2.8349,2.8434,2.8444,2.8472,2.859,2.8596,2.8509,2.8513,2.8516,2.8518,0,0,0,0,0,0,0,2.8114,2.8131,2.8296,2.826,2.8263,2.8261,2.8273,2.8352,2.8392,2.8325,2.8325,2.8339,2.8435,2.8465,2.8474,2.8597,2.8508,2.8515,2.8519,2.8522,2.8802,2.8805,0,0,0,0,0,0,2.8104,2.8125,2.8292,2.8299,2.8184,2.8267,2.8281,2.8321,2.8391,2.8399,2.8341,2.8338,2.8453,2.8466,2.8479,2.8598,2.8516,2.8523,2.8527,2.8799,2.8802,2.8806,0,0,0,0,0,0,2.8099,2.8119,2.8287,2.8212,2.8233,2.8274,2.8319,2.8325,2.8355,2.8402,2.841,2.8364,2.8452,2.8468,2.8558,2.8602,2.8526,2.8533,2.8795,2.88,2.8804,2.8837,0,0,0,0,0,0,2.8092,2.8117,2.8155,2.8213,2.8237,2.8364,2.8322,2.8329,2.8367,2.8364,2.8426,2.8434,2.8451,2.8547,2.8565,2.8611,2.8539,2.8791,2.8797,2.8803,2.8833,2.8842,2.8851,0,0,0,0,0,2.8084,2.816,2.8157,2.8177,2.8285,2.8366,2.838,2.8397,2.8371,2.8409,2.8439,2.8432,2.8595,2.8556,2.8577,2.8625,2.8789,2.8796,2.8802,2.8828,2.8841,2.8851,0,0,0,0,0,0,2.8108,2.8168,2.8165,2.8262,2.8309,2.8364,2.8413,2.841,2.8467,2.8461,2.8481,2.8496,2.8585,2.8615,2.8571,2.8724,2.8688,2.8699,2.8701,2.8713,2.8722,2.8712,2.8545,0,0,0,0,0,2.8124,2.8184,2.8234,2.8315,2.8339,2.8372,2.8408,2.8417,2.8467,2.8487,2.8524,2.8574,2.8636,2.8677,2.8737,2.8837,2.885,2.8881,2.889,2.8897,2.8906,2.896,2.8974,2.8828,2.8828,2.8828,0,0,2.8158,2.8199,2.8236,2.8321,2.8358,2.842,2.8389,2.8456,2.8503,2.8498,2.8583,2.8613,2.867,2.8764,2.8808,2.8792,2.895,2.8906,2.8912,2.8917,2.8968,2.8982,2.8994,2.8832,2.8832,2.8831,0,0,2.8252,2.829,2.836,2.8398,2.8455,2.8476,2.8493,2.855,2.8568,2.8654,2.8651,2.8708,2.8815,2.8854,2.8889,2.8998,2.8992,2.9017,2.9064,2.9117,2.9128,2.9138,2.9175,2.9189,2.9026,2.9026,2.9026,0,2.8288,2.8381,2.8397,2.8465,2.8502,2.8499,2.8571,2.8607,2.8681,2.8707,2.8687,2.882,2.8859,2.8962,2.8988,2.9017,2.9036,2.9009,2.9125,2.9136,2.9145,2.9181,2.9195,2.9028,2.9028,2.9028,2.9028,0,2.8421,2.8485,2.8536,2.8605,2.8648,2.8718,2.8745,2.8787,2.8792,2.8816,2.8904,2.8949,2.9017,2.9043,2.905,2.9148,2.9135,2.9121,2.9084,2.9161,2.9195,2.9209,2.9032,2.9031,2.903,2.903,0,0,2.8531,2.8609,2.8627,2.8658,2.872,2.877,2.884,2.8906,2.894,2.8992,2.905,2.914,2.9126,2.9165,2.9177,2.9223,2.9304,2.9202,2.9204,2.9217,2.9412,2.9421,2.9436,2.9301,2.9304,2.9306,2.9406,0,2.863,2.8751,2.8767,2.8875,2.8934,2.8933,2.8993,2.9038,2.9062,2.9116,2.9144,2.9206,2.9184,2.9208,2.9254,2.9284,2.9343,2.9277,2.9355,2.9357,2.9338,2.9454,2.9464,2.9557,2.942,2.9422,2.9424,0,2.876,2.8813,2.8926,2.8979,2.9004,2.9058,2.9119,2.9171,2.9222,2.9237,2.928,2.9285,2.9357,2.932,2.9419,2.9374,2.9407,2.9427,2.9431,2.9437,2.9393,2.9461,2.9587,2.96,2.9445,2.9443,2.9442,0,2.8826,2.8927,2.9006,2.9033,2.9098,2.9135,2.9164,2.9213,2.9251,2.9305,2.9329,2.9392,2.9425,2.9474,2.9496,2.9467,2.9593,2.9558,2.9606,2.9606,2.9631,2.9629,2.9761,2.9656,2.9656,2.9656,2.9656,0,2.8933,2.9001,2.9037,2.9085,2.9162,2.9182,2.9257,2.9285,2.9328,2.9383,2.9387,2.9438,2.9465,2.9521,2.9539,2.9617,2.9633,2.9647,2.965,2.9645,2.9643,2.9665,2.9658,2.966,2.9659,2.9658,2.9657,0,2.9019,2.9045,2.9132,2.9186,2.9201,2.9255,2.9301,2.9349,2.9373,2.9442,2.9459,2.9497,2.9562,2.959,2.9671,2.9683,2.9772,2.9772,2.9754,2.9755,2.9801,2.9795,2.995,2.9971,2.9854,2.9856,2.9856,0,2.9084,2.9136,2.9195,2.9231,2.9261,2.932,2.9358,2.938,2.942,2.9482,2.9522,2.9587,2.964,2.9744,2.9779,2.9841,2.9841,2.9891,2.9851,2.9843,2.9839,2.9835,2.9839,2.9898,2.9899,2.99,2.9901,0,2.9195,2.9206,2.926,2.932,2.9365,2.9413,2.946,2.949,2.9519,2.9564,2.963,2.9671,2.9753,2.9817,2.988,2.9911,2.9911,2.9914,2.9928,2.9922,2.9908,2.9914,2.9772,2.991,2.9909,2.9908,2.9908,2.9907,2.9271,2.9317,2.9365,2.9426,2.9463,2.9507,2.9553,2.9583,2.9638,2.9705,2.9716,2.9786,2.9836,2.9921,2.9954,3.001,2.9997,3.0018,3.0023,3.0027,3.0029,2.9901,3.0022,3.0022,3.0021,3.0021,3.0021,0,2.9381,2.9412,2.9467,2.9532,2.958,2.9575,2.9627,2.9667,2.9728,2.9775,2.9826,2.9902,2.9964,3.0004,3.0067,3.0104,3.0105,3.012,3.0116,3.0123,3.0038,3.0018,3.0117,3.0117,3.0117,3.0117,3.0117,3.0117,2.9443,2.9519,2.9536,2.9631,2.9662,2.973,2.976,2.98,2.9836,2.992,2.9971,2.9997,3.0041,3.0107,3.0164,3.0174,3.0196,3.0211,3.022,3.0139,3.0129,3.0119,3.0101,3.0216,3.0216,3.03,3.0301,3.0301]},{"header":{"parameterUnit":"m.s-1","parameterCategory":1,"la1":30.2991,"la2":30.254,"lo1":-89.0895,"lo2":-89.0444,"dy":0.0017,"dx":0.0017,"nx":28,"ny":28,"refTime":"2025-07-20T09:00:00:Z","depth":0,"parameterNumber":3,"parameterNumberName":"V-component_of_WINDS"},"data":[0,0,0,0,0,0,0,0,0,0,0,0,0,0,0,0,0,0,0,0,0,0,0,0,0,0,0,0,0,0,0,0,0,0,0,0,0,0,0,0,0,0,0,0,0,0,0,0,0,0,0,0,0,0,0,0,0,0,4.9805,4.9805,0,4.9869,4.987,4.987,4.9847,4.9845,4.9844,4.9843,4.99,4.9902,4.9905,0,0,0,0,0,0,0,0,0,0,0,0,0,4.9652,4.9655,4.9805,4.9805,4.9806,4.9869,4.987,4.9871,4.9847,4.9845,4.9844,4.9842,4.9899,4.9902,4.9905,0,0,0,0,0,0,0,0,0,0,0,0,0,4.9717,4.9656,4.9804,4.9802,4.9803,4.9869,4.987,4.9871,4.9847,4.9845,4.9843,4.9841,4.9898,4.9902,4.9906,4.9975,0,0,4.9919,4.9921,0,0,0,0,0,0,0,0,4.9713,4.9723,4.9802,4.9803,4.9803,4.9848,4.9837,4.9906,4.9848,4.983,4.9843,4.984,4.9884,4.9889,4.9905,4.9978,4.998,4.9919,4.9922,4.9924,4.9925,0,0,0,0,0,0,0,4.9709,4.972,4.983,4.9803,4.9804,4.9795,4.9802,4.985,4.9868,4.9832,4.983,4.9839,4.9883,4.9901,4.9906,4.9981,4.9919,4.9923,4.9926,4.9927,5.0113,5.0115,0,0,0,0,0,0,4.9705,4.9716,4.9828,4.9832,4.9752,4.9799,4.9807,4.9836,4.9867,4.987,4.984,4.9837,4.9895,4.9901,4.9908,4.9991,4.9924,4.9928,4.993,5.011,5.0113,5.0116,0,0,0,0,0,0,4.9702,4.9716,4.9825,4.9774,4.9787,4.9805,4.9836,4.9838,4.9856,4.9874,4.9876,4.9856,4.9894,4.9902,4.9959,4.9993,4.993,4.9934,5.0107,5.0111,5.0114,5.0157,0,0,0,0,0,0,4.9698,4.9715,4.9743,4.9775,4.979,4.9878,4.9839,4.9841,4.9864,4.9861,4.9889,4.9892,4.9893,4.9953,4.9963,4.9997,4.9937,5.0104,5.0109,5.0113,5.0153,5.0162,5.017,0,0,0,0,0,4.9693,4.9751,4.9745,4.9758,4.9827,4.988,4.9888,4.9891,4.9867,4.9895,4.9906,4.9891,4.9988,4.9959,4.9971,5.0006,5.0102,5.0108,5.0113,5.0149,5.016,5.0169,0,0,0,0,0,0,4.9719,4.9755,4.9749,4.9819,4.9847,4.9876,4.991,4.9902,4.9934,4.9929,4.9928,4.9935,4.9993,5.0005,4.9973,5.0075,5.0041,5.0049,5.0065,5.0075,5.0083,5.0079,4.994,0,0,0,0,0,4.9734,4.9778,4.9805,4.9864,4.9879,4.9893,4.9916,4.9916,4.9943,4.9953,4.9969,4.9994,5.003,5.0053,5.0087,5.0155,5.016,5.0185,5.0193,5.02,5.0206,5.0242,5.0253,5.0133,5.0133,5.0133,0,0,4.9763,4.9788,4.9815,4.9871,4.9892,4.9934,4.9902,4.9948,4.9978,4.9959,5.0015,5.0027,5.0054,5.0117,5.0145,5.0129,5.0241,5.0207,5.0212,5.0215,5.0249,5.026,5.027,5.0137,5.0136,5.0135,0,0,4.9839,4.9863,4.9916,4.9939,4.9973,4.9982,4.9994,5.0024,5.0033,5.0089,5.0076,5.011,5.0173,5.0193,5.0211,5.0295,5.0281,5.0306,5.0348,5.0383,5.0393,5.0401,5.043,5.044,5.0312,5.0312,5.0312,0,4.987,4.9937,4.9942,4.999,5.0014,5.0002,5.0054,5.0074,5.0116,5.0132,5.0114,5.0192,5.0209,5.0276,5.0297,5.0312,5.0325,5.0302,5.0391,5.04,5.0408,5.0435,5.0446,5.0315,5.0315,5.0314,5.0314,0,4.9973,5.0019,5.0057,5.0102,5.013,5.0179,5.0189,5.0216,5.0214,5.0224,5.028,5.0301,5.0339,5.0355,5.0351,5.0421,5.041,5.0392,5.0358,5.0422,5.0447,5.0458,5.0319,5.0318,5.0317,5.0316,0,0,5.0066,5.0115,5.0129,5.0149,5.0186,5.022,5.0268,5.0308,5.0331,5.036,5.0398,5.0452,5.0436,5.0457,5.0455,5.0486,5.055,5.0464,5.0465,5.0479,5.0627,5.0639,5.0652,5.0542,5.0544,5.0546,5.0624,0,5.0143,5.0231,5.0238,5.0316,5.0357,5.0347,5.0388,5.0414,5.0424,5.0458,5.0468,5.0507,5.0483,5.0495,5.0526,5.0536,5.058,5.0531,5.0575,5.0577,5.0568,5.0665,5.0679,5.0752,5.0634,5.0636,5.0637,0,5.0246,5.0282,5.0365,5.0397,5.0415,5.0452,5.049,5.0524,5.0552,5.0557,5.0581,5.0576,5.0622,5.0588,5.065,5.0616,5.0635,5.0643,5.0646,5.0649,5.061,5.067,5.0775,5.0786,5.0653,5.0652,5.0651,0,5.0304,5.0373,5.0432,5.0449,5.0489,5.0515,5.0532,5.0558,5.0582,5.0614,5.0629,5.0664,5.0683,5.071,5.0713,5.0688,5.0775,5.0742,5.0779,5.0779,5.0797,5.0795,5.0905,5.0811,5.081,5.081,5.081,0,5.0389,5.044,5.0459,5.0495,5.055,5.0557,5.0611,5.0625,5.0649,5.0685,5.0678,5.0711,5.0715,5.0748,5.0751,5.0802,5.081,5.0814,5.0814,5.0814,5.0814,5.0825,5.082,5.0813,5.0812,5.0812,5.0811,0,5.0463,5.0478,5.0541,5.0574,5.0583,5.0623,5.065,5.0682,5.0693,5.0739,5.075,5.0765,5.0804,5.0811,5.0857,5.0858,5.0919,5.0914,5.091,5.0909,5.0946,5.0942,5.1066,5.1082,5.0978,5.0979,5.098,0,5.0516,5.0555,5.0594,5.0619,5.0639,5.0679,5.0705,5.0712,5.0738,5.0774,5.0802,5.0841,5.0873,5.0936,5.0949,5.0984,5.0979,5.102,5.0984,5.0983,5.0978,5.0976,5.0979,5.1026,5.1028,5.1029,5.1029,0,5.0608,5.0614,5.0653,5.0695,5.0726,5.0758,5.0788,5.0809,5.0819,5.0849,5.0891,5.0916,5.0964,5.1003,5.1037,5.1051,5.1041,5.1041,5.1051,5.1051,5.1048,5.1049,5.0928,5.1038,5.1037,5.1036,5.1036,5.1035,5.0672,5.0707,5.074,5.0783,5.0807,5.0836,5.0869,5.0885,5.0922,5.0964,5.0965,5.1011,5.1037,5.1083,5.11,5.1133,5.112,5.1135,5.1138,5.1142,5.1145,5.1044,5.114,5.1139,5.1139,5.1139,5.1139,0,5.0763,5.0784,5.0824,5.0869,5.0903,5.0895,5.0928,5.0955,5.0997,5.1024,5.1057,5.1105,5.1142,5.1159,5.1196,5.1219,5.1216,5.1228,5.1226,5.1229,5.1156,5.1143,5.1231,5.1231,5.1231,5.1231,5.1231,5.1231,5.0814,5.0872,5.0882,5.0951,5.0971,5.1019,5.1039,5.1064,5.1086,5.1142,5.1174,5.1186,5.1209,5.1247,5.128,5.1284,5.1297,5.1312,5.1313,5.1244,5.1234,5.1225,5.1213,5.1315,5.1315,5.1384,5.1385,5.1385]}]]